Regional Weather Roundup
Issued by NWS State College, PA

Home | Current Version | Previous Version | Text Only | Print | Product List | Glossary On
Versions: 1 2 3 4 5 6 7 8 9 10 11 12 13 14 15 16 17 18 19 20 21 22 23 24 25 26 27 28 29 30 31 32 33 34 35 36 37 38 39 40 41 42 43 44 45 46 47 48 49 50
000
ASUS41 KCTP 281303
RWRCTP

REGIONAL WEATHER ROUNDUP
NATIONAL WEATHER SERVICE STATE COLLEGE PA
900 AM EDT WED SEP 28 2016

Note: "fair" indicates few or no clouds below 12,000 feet with no
significant weather and/or obstructions to visibility.

* = STATION THAT DOES NOT REPORT PRECIPITATION /E.G. RAIN...SNOW...ETC/
    THUNDER OR FOG.

PAZ002>004-007>009-013>016-020>023-029>032-281400-
WESTERN PENNSYLVANIA

CITY           SKY/WX    TMP DP  RH WIND       PRES   REMARKS
ERIE           CLOUDY    59  45  59 S12       29.94R
MEADVILLE      CLOUDY    54  43  66 VRB5      29.95S
FRANKLIN*        N/A     52  41  66 E7        29.98S
NEW CASTLE     FAIR      51  46  83 CALM      29.95S
BEAVER COUNTY  SUNNY     54  45  71 SE5       29.95S
BUTLER*        CLOUDY    55  45  67 E6        29.99R
PITTSBURGH INT CLOUDY    54  48  80 SE5       29.94S
PITTSBURGH     SUNNY     56  44  64 SE6       29.95S
INDIANA*       SUNNY     55  48  76 SE3       30.01S
LATROBE        MOSUNNY   57  52  82 CALM      29.97S
WASHINGTON CO* PTSUNNY   52  46  82 CALM      29.95S
$$

PAZ004>006-010>012-017>019-024>028-033>037-041-042-045-046-049>053-281400-
CENTRAL PENNSYLVANIA

CITY           SKY/WX    TMP DP  RH WIND       PRES   REMARKS
BRADFORD       MOSUNNY   53  46  77 SE5       30.02S
DUBOIS         SUNNY     53  43  68 E7        29.99S
CLEARFIELD     PTSUNNY   49  46  90 NE5       30.03S
JOHNSTOWN      MOSUNNY   56  51  84 SE5       30.00R
ALTOONA        PTSUNNY   53  48  83 N8        30.03R
STATE COLLEGE  MOSUNNY   50  48  93 CALM      30.03F
WILLIAMSPORT   SUNNY     52  49  89 CALM      30.05S
SELINSGROVE    SUNNY     53  52  96 NW3       30.06S
FT INDIANTOWN  PTSUNNY   62  56  81 SE3       30.03S
CAPITAL CITY   CLOUDY    60  56  86 SE5       30.03R FOG
HARRISBURG     PTSUNNY   60  58  92 CALM      30.02S FOG
YORK           FOG       59  59 100 NW3       30.03R VSB 1/4
$$

PAZ038>040-043-044-047-048-054-055-060>062-067>071-281400-
EASTERN PENNSYLVANIA

CITY           SKY/WX    TMP DP  RH WIND       PRES   REMARKS
SCRANTON       SUNNY     59  48  67 NE5       30.08R
MOUNT POCONO   SUNNY     58  48  69 E10       30.09S
ALLENTOWN      SUNNY     58  50  75 NE5       30.06S
QUAKERTOWN*    SUNNY     57  52  82 NE5       30.05F
READING        SUNNY     59  51  75 N3        30.03S
LANCASTER      MOSUNNY   58  58 100 E5        30.03S FOG
COATESVILLE    MOSUNNY   57  55  94 CALM      30.05R
POTTSTOWN      MOSUNNY   58  52  80 CALM      30.06R
BLUE BELL      CLOUDY    61  57  88 E8        30.04R
DOYLESTOWN     SUNNY     61  54  77 N7        30.04F
WILLOW GROVE   NOT AVBL
NORTH PHILA    MOSUNNY   63  58  83 NE10      30.05S
PHILADELPHIA   PTSUNNY   64  59  83 E9        30.03R
$$




USA.gov is the U.S. government's official web portal to all federal, state and local government web resources and services.